Bowling Green, KY

6:58 AM CST on February 07, 2016 (GMT -0600)
Bowling Green-Warren County Regional

Weather History for KBWG - June, 2012

Change the Weather History Date:

Sunday, June 3, 2012

  Actual Average Record
Temperature  
Mean Temperature 75 °F 72 °F  
Max Temperature 86 °F 83 °F 100 °F (1911)
Min Temperature 63 °F 61 °F 41 °F (1910)
Degree Days  
Heating Degree Days 0 1  
Month to date heating degree days 7 3  
Since 1 June heating degree days 7 3  
Since 1 July heating degree days 2962 4046  
Cooling Degree Days 10 7  
Month to date cooling degree days 10 21  
Year to date cooling degree days 389 174  
Since 1 June cooling degree days 10 21  
Growing Degree Days 24 (Base 50)    
Moisture  
Dew Point 56 °F    
Average Humidity 58    
Maximum Humidity 84    
Minimum Humidity 32    
Precipitation  
Precipitation 0.00 in 0.15 in 2.31 in (1954)
Month to date precipitation 0.14 0.47  
Year to date precipitation 17.71 22.40  
Snow  
Snow 0.00 in 0.00 in 0.00 in ()
Month to date snowfall 0.0 0.0  
Since 1 June snowfall 0.0 0.0  
Since 1 July snowfall 1.4 9.1  
Snow Depth 0.00 in    
Sea Level Pressure  
Sea Level Pressure 29.89 in    
Wind  
Wind Speed 5 mph (WSW)    
Max Wind Speed 16 mph    
Max Gust Speed 26 mph    
Visibility 10 miles    
Events      
T = Trace of Precipitation, MM = Missing Value Source: NWS Daily Summary

Daily Weather History Graph

Daily Weather History Graph

Search for Another Location

Airport or City:

Trip Planner

Search our weather history database for the weather conditions in past years. The results will help you decide how hot, cold, wet, or windy it might be!

Date:

Astronomy

Jun. 03, 2012 Rise Set
Actual Time 5:26 AM CDT 8:01 PM CDT
Civil Twilight 4:56 AM CDT 8:31 PM CDT
Nautical Twilight 4:18 AM CDT 9:09 PM CDT
Astronomical Twilight 3:37 AM CDT 9:51 PM CDT
Moon 7:26 PM CDT (6/3) 4:34 AM CDT (6/3)
Length of Visible Light 15h 35m
Length of Day
14h 34m
Waxing Gibbous, 99% of the Moon is Illuminated
Jun 3
Waxing Gibbous
Jun 4
Full
Jun 11
Last Quarter
Jun 19
New
Jun 26
First Quarter

Hourly Weather History & Observations

Time (CDT) Temp. Heat Index Dew Point Humidity Pressure Visibility Wind Dir Wind Speed Gust Speed Precip Events Conditions
12:53 AM 64.0 °F - 54.0 °F 70% 29.90 in 10.0 mi SW 5.8 mph - N/A   Mostly Cloudy
1:53 AM 64.0 °F - 55.0 °F 73% 29.90 in 10.0 mi SW 4.6 mph - N/A   Partly Cloudy
2:53 AM 64.0 °F - 55.9 °F 75% 29.89 in 10.0 mi WSW 5.8 mph - N/A   Clear
3:53 AM 63.0 °F - 55.9 °F 78% 29.91 in 10.0 mi WSW 3.5 mph - N/A   Clear
4:53 AM 64.0 °F - 57.0 °F 78% 29.91 in 10.0 mi SW 5.8 mph - N/A   Overcast
5:53 AM 63.0 °F - 57.0 °F 81% 29.92 in 10.0 mi SW 4.6 mph - N/A   Clear
6:53 AM 64.9 °F - 57.0 °F 75% 29.93 in 10.0 mi SW 4.6 mph - N/A   Scattered Clouds
7:53 AM 70.0 °F - 59.0 °F 68% 29.94 in 10.0 mi WSW 8.1 mph - N/A   Clear
8:53 AM 75.0 °F - 61.0 °F 62% 29.95 in 10.0 mi WSW 11.5 mph - N/A   Clear
9:53 AM 80.1 °F 81.1 °F 61.0 °F 52% 29.94 in 10.0 mi West 9.2 mph - N/A   Clear
10:53 AM 82.0 °F 81.3 °F 54.0 °F 38% 29.93 in 10.0 mi WSW 12.7 mph 16.1 mph N/A   Partly Cloudy
11:53 AM 82.9 °F 81.9 °F 54.0 °F 37% 29.93 in 10.0 mi West 11.5 mph 26.5 mph N/A   Clear
12:53 PM 84.9 °F - 52.0 °F 32% 29.91 in 10.0 mi WNW 8.1 mph 16.1 mph N/A   Clear
1:53 PM 84.9 °F 83.3 °F 54.0 °F 34% 29.90 in 10.0 mi West 11.5 mph 16.1 mph N/A   Partly Cloudy
2:53 PM 84.9 °F - 52.0 °F 32% 29.87 in 10.0 mi West 9.2 mph - N/A   Clear
3:53 PM 84.0 °F 82.9 °F 55.0 °F 37% 29.86 in 10.0 mi West 5.8 mph - N/A   Clear
4:53 PM 84.9 °F - 52.0 °F 32% 29.85 in 10.0 mi NW 4.6 mph - N/A   Clear
5:53 PM 84.9 °F 83.2 °F 53.1 °F 33% 29.85 in 10.0 mi West 4.6 mph - N/A   Clear
6:53 PM 82.9 °F 81.8 °F 53.1 °F 36% 29.85 in 10.0 mi NW 3.5 mph - N/A   Clear
7:53 PM 80.1 °F 80.0 °F 54.0 °F 40% 29.84 in 10.0 mi Calm Calm - N/A   Clear
8:53 PM 73.9 °F - 57.9 °F 57% 29.84 in 10.0 mi Calm Calm - N/A   Clear
9:53 PM 72.0 °F - 61.0 °F 68% 29.85 in 10.0 mi Calm Calm - N/A   Clear
11:53 PM 72.0 °F - 62.1 °F 71% 29.87 in 10.0 mi Calm Calm - N/A   Clear